Flag for Iceland Weather past 2 weeks in Keflavík, Iceland

Now
46 °F

Partly sunny.


Feels Like: 46 °F
Forecast: 47 / 51 °F
Wind: 1 mph from Southwest

Location: Keflavikurflugvollur

Current Time: Aug 2, 2014 at 7:20:23 AM

Latest Report: Aug 2, 2014 at 7:00 AM


Visibility: N/A

Pressure: 29.95 "Hg

Humidity: 93%

Dew point: 45 °F

Location of KeflavíkLocation

Historic Weather in Keflavík — Graph

°F

Keflavík temperature yesterday

Maximum temperature yesterday: 55 °F (at 2:00 PM)
Minimum temperature yesterday: 43 °F (at 5:30 AM)
Average temperature yesterday: 50 °F

Past Weeks' High & Low Weather Summary

 TemperatureHumidityPressure
High61 °F (Jul 20, 2:00 PM)100% (Jul 18, 8:30 PM)30.12 "Hg (Jul 18, 8:30 PM)
Low43 °F (Aug 1, 5:30 AM)47% (Aug 1, 2:00 PM)29.47 "Hg (Jul 28, 10:30 AM)
Average54 °F88%29.88 "Hg
* Reported Jul 18 6:00 AM — Aug 2 6:00 AM, Keflavík, Weather by CustomWeather, © 2014

Note: Actual official high and low records may vary slightly from our data, if they occured in-between our weather recording intervals... More about our weather records

Advertising

Keflavík weather history for previous 24 hours

 ConditionsComfort  
Time TempWeatherWind HumidityBarometerVisibility
6:00 AM
Aug 2
46 °FPartly sunny.1 mph93%29.95 "HgN/A
5:30 AM46 °FPartly sunny.2 mph93%29.95 "HgN/A
5:00 AM46 °FPartly sunny.6 mph93%29.95 "HgN/A
4:30 AM46 °FPassing clouds.6 mph93%29.95 "HgN/A
4:00 AM48 °FPassing clouds.6 mph94%29.95 "HgN/A
3:30 AM48 °FPassing clouds.6 mph94%29.95 "HgN/A
3:00 AM48 °FPassing clouds.6 mph94%29.95 "HgN/A
2:30 AM48 °FPassing clouds.6 mph94%29.95 "HgN/A
2:00 AM48 °FPassing clouds.6 mph94%29.95 "HgN/A
1:30 AM48 °FPartly cloudy.6 mph87%29.98 "HgN/A
1:00 AM48 °FPassing clouds.6 mph87%29.98 "HgN/A
12:30 AM48 °FClear.2 mph87%29.98 "Hg10 mi
12:00 AM48 °FClear.2 mph87%29.98 "Hg10 mi
11:30 PM
Aug 1
48 °FClear.6 mph87%29.98 "Hg10 mi
11:00 PM48 °FClear.8 mph87%29.98 "Hg10 mi
10:30 PM50 °FSunny.7 mph82%29.98 "Hg10 mi
10:00 PM50 °FSunny.7 mph76%29.98 "Hg10 mi
9:30 PM50 °FSunny.8 mph76%29.98 "Hg10 mi
9:00 PM50 °FBroken clouds.9 mph76%29.98 "HgN/A
8:30 PM52 °FBroken clouds.10 mph67%29.98 "HgN/A
8:00 PM52 °FBroken clouds.12 mph62%29.98 "HgN/A
7:30 PM52 °FBroken clouds.12 mph72%29.98 "HgN/A
7:00 PM52 °FBroken clouds.12 mph67%29.95 "HgN/A
6:30 PM52 °FBroken clouds.12 mph67%29.95 "HgN/A
6:00 PM52 °FBroken clouds.12 mph67%29.95 "HgN/A
5:30 PM52 °FBroken clouds.13 mph62%29.95 "HgN/A
5:00 PM52 °FBroken clouds.12 mph58%29.95 "HgN/A
4:30 PM54 °FBroken clouds.10 mph58%29.95 "HgN/A
4:00 PM54 °FBroken clouds.9 mph54%29.95 "HgN/A
3:30 PM54 °FBroken clouds.9 mph51%29.95 "HgN/A
3:00 PM55 °FBroken clouds.9 mph51%29.95 "HgN/A
2:30 PM54 °FPartly sunny.8 mph54%29.95 "HgN/A
2:00 PM55 °FBroken clouds.10 mph47%29.95 "HgN/A
1:30 PM54 °FBroken clouds.8 mph51%29.95 "HgN/A
1:00 PM54 °FBroken clouds.9 mph51%29.95 "HgN/A
12:30 PM52 °FBroken clouds.8 mph54%29.95 "HgN/A
12:00 PM54 °FPartly sunny.9 mph54%29.95 "HgN/A
11:30 AM54 °FPartly sunny.9 mph51%29.95 "HgN/A
11:00 AM54 °FScattered clouds.8 mph58%29.95 "HgN/A
10:30 AM54 °FScattered clouds.7 mph67%29.95 "HgN/A
10:00 AM52 °FScattered clouds.6 mph67%29.95 "HgN/A
9:30 AM52 °FScattered clouds.6 mph72%29.95 "HgN/A
9:00 AM52 °FScattered clouds.3 mph72%29.95 "HgN/A
8:30 AM50 °FSunny.5 mph76%29.95 "Hg10 mi
8:00 AM50 °FSunny.2 mph76%29.95 "Hg10 mi
7:30 AM46 °FSunny.5 mph87%29.95 "Hg10 mi
7:00 AM48 °FSunny.2 mph82%29.95 "Hg10 mi
Weather by CustomWeather, © 2014

See weather overviewHow to use our weather pages